CW1490 Weather Reports


time (UTC)temp
F
wind
direction
speed
knots
gust
knots
rain 1hr
in
rain 24hr
in
rain mn
in
humidity
%
barometer
mb
20260904074006 62 247 2.6 4.3 0.00 0.00 0.00 93 1011.1
20260904073510 62 238 2.6 5.2 0.00 0.00 0.00 93 1011.2
20260904073019 62 234 2.6 5.2 0.00 0.00 0.00 93 1011.2
20260904072510 62 232 2.6 4.3 0.00 0.00 0.00 93 1011.3
20260904072009 62 252 2.6 4.3 0.00 0.00 0.00 93 1011.3
20260904071532 63 225 1.7 2.6 0.00 0.00 0.00 93 1011.4
20260904071011 63 205 1.7 2.6 0.00 0.00 0.00 93 1011.3
20260904070514 63 255 0.9 2.6 0.00 0.00 0.00 93 1011.3
20260904070029 63 234 0.9 2.6 0.00 0.00 0.00 93 1011.3
20260904065519 63 254 0.9 2.6 0.00 0.00 0.00 93 1011.3
20260904065018 63 275 0.0 2.6 0.00 0.00 0.00 93 1011.3
20260904064533 63 265 0.0 4.3 0.00 0.00 0.00 93 1011.4
20260904064017 64 149 1.7 4.3 0.00 0.00 0.00 93 1011.4
20260904063520 64 231 0.9 3.5 0.00 0.00 0.00 93 1011.5
20260904063035 64 205 0.9 5.2 0.00 0.00 0.00 93 1011.4
20260904062515 64 51 0.9 5.2 0.00 0.00 0.00 93 1011.3
20260904062012 64 34 1.7 3.5 0.00 0.00 0.00 93 1011.5
20260904061524 64 314 0.9 3.5 0.00 0.01 0.00 93 1011.5
20260904061017 63 300 0.9 3.5 0.00 0.01 0.00 93 1011.5
20260904060512 63 68 0.9 2.6 0.00 0.01 0.00 93 1011.5
20260904060029 63 325 0.9 1.7 0.00 0.01 0.00 93 1011.5
20260904055511 63 309 0.0 1.7 0.00 0.02 0.00 93 1011.5
20260904055019 63 309 0.0 1.7 0.00 0.02 0.00 93 1011.6
20260904054530 63 232 0.0 1.7 0.00 0.02 0.00 93 1011.7
20260904054018 64 9 0.0 1.7 0.00 0.02 0.00 93 1011.8
20260904053515 64 9 0.0 1.7 0.00 0.02 0.00 93 1011.9
20260904053039 64 291 0.9 1.7 0.00 0.02 0.00 93 1012.0
20260904052521 64 232 0.9 1.7 0.00 0.02 0.00 93 1012.0
20260904052019 64 51 0.0 1.7 0.00 0.02 0.00 93 1012.1
20260904051538 64 221 0.0 1.7 0.00 0.02 0.00 93 1012.1
20260904051011 64 291 0.0 1.7 0.00 0.02 0.00 93 1012.1
20260904050509 64 93 0.0 1.7 0.00 0.02 0.00 92 1012.1
20260904050034 64 51 0.0 1.7 0.00 0.02 0.00 92 1012.2
20260904045516 64 9 0.0 1.7 0.00 0.02 0.00 92 1012.2
20260904045014 64 309 0.0 2.6 0.00 0.02 0.00 92 1012.1
20260904044528 64 51 0.0 3.5 0.00 0.02 0.00 92 1012.1
20260904044019 64 232 1.7 3.5 0.00 0.02 0.00 92 1012.2
20260904043516 65 209 0.9 5.2 0.00 0.02 0.00 92 1012.1
20260904043031 65 205 1.7 6.1 0.00 0.02 0.00 92 1012.1
20260904042519 65 209 3.5 6.1 0.00 0.02 0.00 92 1012.1
20260904042006 65 213 2.6 4.3 0.00 0.02 0.00 92 1012.1
20260904041521 65 165 0.9 2.6 0.00 0.02 0.00 92 1012.1
20260904041012 65 229 0.9 2.6 0.00 0.02 0.00 92 1012.2
20260904040508 65 232 0.9 2.6 0.00 0.02 0.00 92 1012.2
20260904040025 65 250 0.9 2.6 0.00 0.02 0.00 92 1012.2
20260904035517 65 247 0.9 2.6 0.00 0.02 0.02 92 1012.1
20260904035016 65 238 1.7 2.6 0.00 0.02 0.02 92 1012.2
20260904034532 65 93 0.0 3.5 0.00 0.02 0.02 92 1012.1
20260904034014 66 214 0.9 3.5 0.00 0.02 0.02 92 1012.3
20260904033518 66 193 0.9 3.5 0.00 0.02 0.02 92 1012.3
20260904033008 66 221 0.9 3.5 0.00 0.02 0.02 92 1012.4
20260904032521 66 238 1.7 3.5 0.00 0.02 0.02 92 1012.3
20260904032005 66 243 0.9 1.7 0.00 0.02 0.02 92 1012.4
20260904031514 66 26 0.0 2.6 0.00 0.02 0.02 92 1012.2
20260904031007 66 265 0.0 4.3 0.00 0.02 0.02 92 1012.3
20260904030508 66 178 1.7 4.3 0.00 0.02 0.02 91 1012.3
20260904030020 67 221 1.7 3.5 0.00 0.02 0.02 92 1012.4
20260904025516 67 213 0.9 3.5 0.00 0.02 0.02 91 1012.5
20260904025012 67 221 1.7 3.5 0.00 0.02 0.02 91 1012.6
20260904024526 67 243 0.9 2.6 0.00 0.02 0.02 91 1012.5
20260904024013 67 238 0.9 1.7 0.00 0.02 0.02 91 1012.5
20260904023514 67 205 0.0 1.7 0.00 0.02 0.02 91 1012.7
20260904023031 67 119 0.0 2.6 0.00 0.02 0.02 91 1012.6
20260904022517 68 22 1.7 2.6 0.00 0.02 0.02 91 1012.6
20260904022020 68 41 0.0 2.6 0.00 0.02 0.02 91 1012.4
20260904021508 68 238 0.9 2.6 0.00 0.02 0.02 91 1012.4
20260904021004 68 232 1.7 2.6 0.00 0.02 0.02 91 1012.4
20260904020506 68 214 0.0 2.6 0.00 0.02 0.02 91 1012.5
20260904020015 68 265 0.9 1.7 0.00 0.02 0.02 91 1012.6
20260904015507 68 265 0.9 1.7 0.00 0.02 0.02 90 1012.7
20260904015014 68 265 0.9 1.7 0.00 0.02 0.02 90 1012.7
20260904014523 69 265 0.0 1.7 0.00 0.02 0.02 91 1012.6
20260904014012 69 265 0.0 1.7 0.00 0.02 0.02 90 1012.7
20260904013512 69 9 0.0 1.7 0.00 0.02 0.02 90 1012.8
20260904013027 69 265 0.0 1.7 0.00 0.02 0.02 90 1012.8
20260904012516 69 265 0.0 1.7 0.00 0.02 0.02 90 1012.8
20260904012016 69 178 0.0 1.7 0.00 0.02 0.02 90 1012.7
20260904011533 69 178 0.0 2.6 0.00 0.02 0.02 90 1012.7
20260904011020 70 232 0.9 2.6 0.00 0.02 0.02 90 1012.7
20260904010517 70 234 0.9 2.6 0.00 0.02 0.02 90 1012.7
20260904010013 70 205 0.0 3.5 0.00 0.02 0.02 90 1012.8
20260904005506 70 247 0.0 4.3 0.00 0.02 0.02 90 1012.7
20260904005006 70 234 1.7 4.3 0.00 0.02 0.02 90 1012.7
20260904004517 70 216 1.7 2.6 0.00 0.02 0.02 90 1012.5
20260904004015 71 221 0.0 2.6 0.00 0.02 0.02 89 1012.5
20260904003513 71 227 0.9 3.5 0.00 0.02 0.02 89 1012.4
20260904003026 71 178 0.9 4.3 0.00 0.02 0.02 89 1012.4
20260904002516 71 178 0.9 4.3 0.00 0.02 0.02 89 1012.3
20260904002014 71 196 0.9 3.5 0.00 0.02 0.02 89 1012.2
20260904001526 72 319 1.7 3.5 0.00 0.02 0.02 89 1012.1
20260904001013 72 234 1.7 4.3 0.00 0.02 0.02 89 1011.9
20260904000515 72 232 1.7 4.3 0.00 0.02 0.02 88 1011.9
20260904000110 72 219 2.6 5.2 0.00 0.02 0.02 88 1011.8
20260903235520 72 265 1.7 7.8 0.00 0.02 0.02 88 1011.8
20260903235014 73 163 3.5 7.8 0.00 0.02 0.02 88 1011.7
20260903234534 73 215 4.3 7.0 0.00 0.02 0.02 88 1011.7
20260903234010 73 229 2.6 5.2 0.00 0.02 0.02 87 1011.6
20260903233511 73 165 0.9 4.3 0.00 0.02 0.02 87 1011.6
20260903233026 74 265 0.9 3.5 0.00 0.02 0.02 87 1011.7
20260903232521 74 221 0.9 3.5 0.00 0.02 0.02 87 1011.7
20260903232014 74 265 0.0 1.7 0.00 0.02 0.02 86 1011.6
20260903231530 74 247 0.0 1.7 0.00 0.02 0.02 86 1011.5
20260903231015 75 51 0.0 2.6 0.00 0.02 0.02 86 1011.6
20260903230517 75 334 0.9 3.5 0.00 0.02 0.02 86 1011.6
20260903230035 75 232 1.7 3.5 0.00 0.02 0.02 85 1011.7
20260903225523 75 265 0.9 1.7 0.00 0.02 0.02 86 1011.7
20260903225015 75 238 0.9 2.6 0.00 0.02 0.02 86 1011.8
20260903224543 75 221 0.9 3.5 0.00 0.02 0.02 85 1011.6
20260903224019 76 250 0.9 4.3 0.00 0.02 0.02 85 1011.7
20260903223524 76 234 2.6 4.3 0.00 0.02 0.02 85 1011.8
20260903223036 76 229 2.6 3.5 0.00 0.02 0.02 85 1011.7
20260903222510 76 229 1.7 3.5 0.00 0.02 0.02 85 1011.7
20260903222012 76 250 0.9 2.6 0.00 0.02 0.02 85 1011.5
20260903221529 76 238 0.0 2.6 0.00 0.02 0.02 84 1011.7
20260903221012 77 238 1.7 3.5 0.00 0.02 0.02 83 1011.7
20260903220514 77 291 1.7 5.2 0.00 0.02 0.02 82 1011.6
20260903220030 77 225 3.5 7.0 0.00 0.02 0.02 81 1011.7
20260903215519 78 200 4.3 9.6 0.00 0.02 0.02 80 1011.8
20260903215014 78 201 3.5 9.6 0.00 0.02 0.02 80 1011.8
20260903214535 78 213 3.5 9.6 0.00 0.02 0.02 80 1011.9
20260903214016 78 213 4.3 7.0 0.00 0.02 0.02 82 1012.2
20260903213520 78 219 3.5 6.1 0.00 0.02 0.02 82 1012.3
20260903213037 77 194 2.6 6.1 0.00 0.02 0.02 81 1012.1
20260903212519 77 209 1.7 4.3 0.00 0.02 0.02 82 1012.0
20260903212014 77 51 0.9 3.5 0.00 0.02 0.02 84 1011.9
20260903211541 76 24 2.6 3.5 0.00 0.02 0.02 84 1011.9
20260903211010 76 309 1.7 3.5 0.00 0.02 0.02 84 1012.0
20260903210512 76 22 0.0 2.6 0.00 0.02 0.02 83 1012.0
20260903210025 76 309 0.0 2.6 0.00 0.02 0.02 82 1011.9
20260903205522 77 265 0.9 3.5 0.00 0.02 0.02 81 1011.9
20260903205015 77 168 0.9 4.3 0.00 0.02 0.02 81 1011.9
20260903204532 77 216 2.6 5.2 0.00 0.02 0.02 80 1011.9
20260903204017 77 212 3.5 6.1 0.00 0.02 0.02 80 1012.0
20260903203519 78 232 2.6 7.8 0.00 0.02 0.02 79 1011.9
20260903203040 78 221 3.5 7.8 0.00 0.02 0.02 79 1011.9
20260903202518 78 194 3.5 7.8 0.00 0.02 0.02 78 1011.9
20260903202015 77 175 4.3 7.8 0.00 0.02 0.02 79 1011.9
20260903201536 78 212 2.6 7.0 0.00 0.02 0.02 79 1011.9
20260903201009 77 220 2.6 5.2 0.00 0.02 0.02 80 1011.9
20260903200506 77 74 1.7 8.7 0.00 0.02 0.02 81 1012.1
20260903200005 77 195 3.5 8.7 0.00 0.02 0.02 81 1012.1
20260903195524 77 219 4.3 8.7 0.00 0.02 0.02 81 1012.2
20260903195004 77 244 2.6 7.0 0.00 0.02 0.02 81 1012.2
20260903194510 77 168 0.9 7.0 0.00 0.02 0.02 82 1012.3
20260903194005 77 51 2.6 7.8 0.00 0.02 0.02 81 1012.4
20260903193507 77 214 2.6 8.7 0.00 0.02 0.02 81 1012.5
20260903193011 76 150 3.5 8.7 0.00 0.02 0.02 82 1012.4
20260903192503 76 232 2.6 7.0 0.00 0.02 0.02 81 1012.5
20260903192008 76 178 2.6 7.0 0.00 0.02 0.02 82 1012.6
20260903191529 75 213 3.5 7.0 0.00 0.02 0.02 84 1012.7
20260903191022 74 196 2.6 6.1 0.00 0.02 0.02 83 1012.7
20260903190510 74 187 1.7 5.2 0.00 0.02 0.02 83 1012.9
20260903190049 74 178 0.9 4.3 0.00 0.02 0.02 84 1013.0
20260903185511 73 205 0.9 3.5 0.00 0.02 0.02 84 1013.0
20260903185014 73 78 0.9 3.5 0.00 0.02 0.02 85 1012.9
20260903184509 73 178 0.9 1.7 0.00 0.02 0.02 85 1013.0
20260903184006 73 51 0.9 3.5 0.00 0.02 0.02 84 1013.0
20260903183503 73 291 0.9 5.2 0.00 0.02 0.02 86 1013.1
20260903183009 73 63 2.6 6.1 0.00 0.02 0.02 85 1013.1
20260903182504 73 31 2.6 6.1 0.00 0.02 0.02 85 1013.1
20260903182004 73 79 2.6 8.7 0.00 0.02 0.02 84 1013.2
20260903181531 73 44 3.5 8.7 0.00 0.02 0.02 84 1013.2
20260903181009 73 38 3.5 6.1 0.00 0.02 0.02 86 1013.2
20260903180508 72 49 3.5 4.3 0.00 0.02 0.02 86 1013.2
20260903180033 71 41 0.9 7.8 0.00 0.02 0.02 86 1013.1
20260903175510 72 47 3.5 7.8 0.00 0.02 0.02 87 1013.2
20260903175010 71 41 2.6 7.0 0.00 0.02 0.02 87 1013.2
20260903174526 71 65 2.6 7.0 0.00 0.02 0.02 87 1013.2
20260903174014 71 41 2.6 6.1 0.00 0.02 0.02 88 1013.2
20260903173512 71 51 1.7 6.1 0.00 0.02 0.02 88 1013.3
20260903173004 71 48 2.6 5.2 0.00 0.02 0.02 87 1013.3
20260903172504 71 57 2.6 7.0 0.00 0.02 0.02 87 1013.6
20260903172003 71 68 3.5 7.0 0.00 0.02 0.02 87 1013.7
20260903171522 71 48 2.6 5.2 0.00 0.02 0.02 87 1013.6
20260903171007 70 51 1.7 2.6 0.00 0.02 0.02 87 1013.7
20260903170506 70 51 0.9 3.5 0.00 0.02 0.02 86 1013.8
20260903170051 70 51 0.9 7.0 0.00 0.02 0.02 87 1013.8
20260903165509 70 26 1.7 7.8 0.00 0.02 0.02 87 1013.8
20260903165020 71 13 3.5 7.8 0.00 0.02 0.02 86 1013.8
20260903164522 71 40 2.6 7.0 0.00 0.02 0.02 88 1013.8
20260903164012 71 34 0.9 7.0 0.00 0.02 0.02 86 1013.8
20260903163522 71 51 2.6 7.0 0.00 0.02 0.02 85 1013.9
20260903163035 71 63 1.7 7.0 0.00 0.02 0.02 87 1013.9
20260903162515 70 33 2.6 7.0 0.00 0.02 0.02 87 1013.8
20260903162017 70 59 1.7 6.1 0.00 0.02 0.02 87 1013.9
20260903161508 69 84 3.5 6.1 0.00 0.02 0.02 88 1014.0
20260903161004 69 44 1.7 5.2 0.00 0.02 0.02 88 1014.1
20260903160508 69 26 1.7 5.2 0.00 0.02 0.02 88 1014.2
20260903160015 69 61 2.6 7.0 0.00 0.02 0.02 88 1014.2
20260903155508 69 61 1.7 7.0 0.00 0.02 0.02 88 1014.2
20260903155010 69 84 3.5 7.0 0.00 0.02 0.02 88 1014.2
20260903154519 69 221 0.9 7.0 0.00 0.02 0.02 87 1014.1
20260903154015 69 59 4.3 7.0 0.00 0.02 0.02 88 1014.0
20260903153510 69 59 2.6 5.2 0.00 0.02 0.02 88 1014.1
20260903153028 68 51 1.7 7.0 0.00 0.02 0.02 88 1014.2
20260903152516 68 44 2.6 7.0 0.00 0.02 0.02 88 1014.3
20260903152018 69 30 1.7 6.1 0.00 0.02 0.02 87 1014.3
20260903151531 68 61 0.9 3.5 0.00 0.02 0.02 92 1014.4
20260903151016 67 265 1.7 4.3 0.00 0.02 0.02 89 1014.3
20260903150514 66 196 0.9 4.3 0.00 0.02 0.02 90 1014.4
20260903150042 66 265 0.9 3.5 0.00 0.02 0.02 90 1014.4
20260903145507 66 26 0.9 3.5 0.00 0.02 0.02 90 1014.6
20260903145008 66 193 0.9 3.5 0.00 0.02 0.02 90 1014.7
20260903144517 66 153 0.9 3.5 0.00 0.02 0.02 91 1014.6
20260903144011 66 158 0.9 5.2 0.00 0.02 0.02 91 1014.7
20260903143510 66 137 0.9 5.2 0.00 0.02 0.02 91 1014.7
20260903143023 65 137 1.7 5.2 0.00 0.02 0.02 92 1014.7
20260903142511 65 309 0.9 3.5 0.00 0.02 0.02 92 1014.7
20260903142015 65 178 0.9 4.3 0.00 0.02 0.02 92 1014.8
20260903141527 65 221 1.7 4.3 0.00 0.02 0.02 92 1014.8
20260903141015 65 178 1.7 5.2 0.00 0.02 0.02 93 1014.9
20260903140517 65 298 2.6 5.2 0.00 0.02 0.02 93 1014.7
20260903140037 65 208 3.5 5.2 0.00 0.02 0.02 93 1014.7
20260903135517 64 216 1.7 4.3 0.00 0.02 0.02 94 1014.6
20260903135015 64 221 1.7 5.2 0.00 0.02 0.02 94 1014.6
20260903134528 63 210 2.6 5.2 0.00 0.02 0.02 94 1014.7
20260903134007 63 196 2.6 5.2 0.00 0.02 0.02 94 1014.7
20260903133510 63 211 1.7 4.3 0.00 0.02 0.02 94 1014.8
20260903133024 63 196 0.9 3.5 0.00 0.02 0.02 94 1014.8
20260903132512 63 214 1.7 3.5 0.00 0.02 0.02 94 1014.9
20260903132015 63 212 0.9 4.3 0.00 0.02 0.02 94 1014.9
20260903131527 63 213 2.6 4.3 0.00 0.02 0.02 94 1014.9
20260903131018 63 191 1.7 3.5 0.00 0.02 0.02 94 1014.9
20260903130512 63 238 1.7 3.5 0.00 0.02 0.02 94 1014.9
20260903130031 63 229 1.7 4.3 0.00 0.02 0.02 94 1014.9
20260903125516 63 247 1.7 4.3 0.00 0.02 0.02 94 1014.9
20260903125021 63 190 0.9 5.2 0.00 0.02 0.02 94 1015.0
20260903124531 63 178 2.6 5.2 0.00 0.02 0.02 94 1015.0
20260903124015 63 195 3.5 5.2 0.00 0.02 0.02 94 1015.1
20260903123515 63 161 1.7 5.2 0.00 0.02 0.02 93 1015.2
20260903123033 63 198 1.7 3.5 0.00 0.02 0.02 93 1015.1
20260903122519 63 243 1.7 3.5 0.00 0.02 0.02 93 1015.3
20260903122008 62 211 1.7 3.5 0.00 0.02 0.02 93 1015.3
20260903121526 62 178 1.7 3.5 0.00 0.02 0.02 94 1015.4
20260903121010 62 221 1.7 3.5 0.00 0.02 0.02 94 1015.3
20260903120512 62 221 0.9 2.6 0.00 0.02 0.02 93 1015.3
20260903120028 62 153 0.9 6.1 0.00 0.02 0.02 93 1015.4
20260903115515 62 161 1.7 6.1 0.00 0.02 0.02 93 1015.4
20260903115016 62 229 3.5 6.1 0.00 0.02 0.02 93 1015.4
20260903114533 62 213 3.5 6.1 0.00 0.02 0.02 93 1015.5
20260903114017 62 178 1.7 5.2 0.00 0.02 0.02 93 1015.3
20260903113521 62 221 2.6 5.2 0.00 0.02 0.02 93 1015.5
20260903113033 62 205 2.6 5.2 0.00 0.02 0.02 93 1015.5
20260903112516 62 221 3.5 5.2 0.00 0.02 0.02 93 1015.6
20260903112022 62 265 0.9 4.3 0.00 0.02 0.02 93 1015.5
20260903111535 62 211 1.7 4.3 0.00 0.02 0.02 93 1015.5
20260903111020 62 196 1.7 5.2 0.00 0.02 0.02 93 1015.7
20260903110513 62 221 1.7 5.2 0.00 0.02 0.02 93 1015.7
20260903110026 62 227 1.7 4.3 0.00 0.02 0.02 93 1015.7
20260903105511 62 214 1.7 3.5 0.00 0.02 0.02 93 1015.7
20260903105016 62 238 1.7 3.5 0.00 0.02 0.02 93 1015.7
20260903104531 62 196 1.7 3.5 0.00 0.02 0.02 93 1015.7
20260903104021 62 193 0.9 3.5 0.00 0.02 0.02 93 1015.6
20260903103514 62 178 0.0 2.6 0.00 0.02 0.02 93 1015.6
20260903103030 62 51 0.0 4.3 0.00 0.02 0.02 93 1015.4
20260903102516 62 291 1.7 4.3 0.00 0.02 0.02 93 1015.4
20260903102018 62 209 1.7 3.5 0.00 0.02 0.02 93 1015.3
20260903101511 62 205 1.7 6.1 0.00 0.02 0.02 92 1015.4
20260903101004 62 218 3.5 6.1 0.00 0.02 0.02 92 1015.4
20260903100504 62 216 2.6 6.1 0.00 0.02 0.02 92 1015.4
20260903100013 62 232 3.5 6.1 0.00 0.02 0.02 92 1015.4
20260903095503 62 219 2.6 5.2 0.00 0.02 0.02 92 1015.4
20260903095003 62 245 1.7 6.1 0.00 0.02 0.02 92 1015.4
20260903094505 62 227 2.6 6.1 0.00 0.02 0.02 92 1015.5
20260903094006 62 238 2.6 5.2 0.00 0.02 0.02 92 1015.5
20260903093505 62 205 1.7 5.2 0.00 0.02 0.02 92 1015.6
20260903093006 62 265 1.7 3.5 0.00 0.02 0.02 92 1015.7
20260903092508 62 178 0.9 7.8 0.00 0.02 0.02 92 1015.6
20260903092007 62 265 1.7 7.8 0.00 0.02 0.02 92 1015.7
20260903091513 62 245 2.6 4.3 0.00 0.02 0.02 92 1015.5
20260903091008 62 213 1.7 4.3 0.00 0.02 0.02 92 1015.5
20260903090508 62 221 2.6 6.1 0.00 0.02 0.02 92 1015.6
20260903090018 62 229 2.6 6.1 0.00 0.02 0.02 92 1015.7
20260903085507 62 214 2.6 6.1 0.00 0.02 0.02 91 1015.7
20260903085007 62 196 2.6 6.1 0.00 0.02 0.02 91 1015.8
20260903084519 62 210 1.7 4.3 0.00 0.02 0.02 91 1015.9
20260903084003 62 215 2.6 4.3 0.00 0.02 0.02 91 1016.2
20260903083503 62 209 2.6 4.3 0.00 0.02 0.02 91 1016.3
20260903083007 62 178 0.9 4.3 0.00 0.02 0.02 91 1016.2
20260903082507 62 196 2.6 7.8 0.00 0.02 0.02 91 1016.1
20260903082006 62 202 2.6 7.8 0.00 0.02 0.02 91 1016.2
20260903081513 62 205 2.6 7.0 0.00 0.02 0.02 90 1016.3
20260903081010 62 207 2.6 4.3 0.00 0.02 0.02 91 1016.3
20260903080512 62 229 0.9 3.5 0.00 0.02 0.02 90 1016.3
20260903080016 62 161 0.9 1.7 0.00 0.02 0.02 90 1016.2
20260903075506 62 325 0.0 1.7 0.00 0.02 0.02 90 1016.3
20260903075010 62 309 0.0 0.9 0.00 0.02 0.02 90 1016.1
20260903074520 62 51 0.0 0.9 0.00 0.02 0.02 90 1016.1